KG5VSR Weather Reports


time (UTC)temp
C
wind
direction
speed
KPH
gust
KPH
rain 1hr
cm
rain 24hr
cm
rain mn
cm
humidity
%
barometer
mb
20260906064741 27 251 0.0 0.0 0.00 0.00 0.00 85 1013.0
20260906061740 27 187 1.6 3.2 0.00 0.00 0.00 83 1013.2
20260906054738 28 162 6.4 8.0 0.00 0.00 0.00 81 1013.6
20260906051737 28 90 3.2 3.2 0.00 0.00 0.00 78 1013.4
20260906044734 28 160 1.6 1.6 0.00 0.00 0.00 76 1013.1
20260906041733 29 38 0.0 0.0 0.00 0.00 0.00 74 1013.2
20260906034733 29 172 6.4 8.0 0.00 0.00 0.00 74 1013.3
20260906031733 30 214 0.0 0.0 0.00 0.00 0.00 73 1013.4
20260906024728 30 201 1.6 1.6 0.00 0.00 0.00 72 1013.4
20260906021729 30 196 1.6 1.6 0.00 0.00 0.00 69 1013.0
20260906014728 31 212 0.0 1.6 0.00 0.00 0.00 66 1012.6
20260906011728 31 257 0.0 0.0 0.00 0.00 0.00 65 1011.8
20260906004725 32 210 1.6 3.2 0.00 0.00 0.00 62 1012.1
20260906001724 34 197 4.8 4.8 0.00 0.00 0.00 55 1011.4
20260905234722 36 171 4.8 4.8 0.00 0.00 0.00 48 1011.1
20260905231721 36 62 3.2 4.8 0.00 0.00 0.00 47 1011.0
20260905224716 37 69 0.0 0.0 0.00 0.00 0.00 46 1010.8
20260905221712 37 93 4.8 4.8 0.00 0.00 0.00 46 1010.8
20260905214709 36 160 3.2 4.8 0.00 0.00 0.00 47 1011.1
20260905211708 37 9 4.8 11.3 0.00 0.00 0.00 46 1011.1
20260905204704 38 194 1.6 1.6 0.00 0.00 0.00 44 1011.7
20260905201704 36 182 1.6 3.2 0.00 0.00 0.00 47 1012.1
20260905194702 36 336 4.8 4.8 0.00 0.00 0.00 47 1012.6
20260905191659 37 262 1.6 1.6 0.00 0.00 0.00 45 1013.2
20260905184654 37 185 1.6 3.2 0.00 0.00 0.00 46 1013.6
20260905181650 37 84 3.2 3.2 0.00 0.00 0.00 47 1014.0
20260905174647 36 262 1.6 1.6 0.00 0.00 0.00 49 1015.0
20260905171641 36 18 0.0 1.6 0.00 0.00 0.00 49 1015.1
20260905164642 34 335 3.2 3.2 0.00 0.00 0.00 56 1015.3
20260905161640 33 287 0.0 0.0 0.00 0.00 0.00 59 1015.2
20260905154637 32 282 1.6 3.2 0.00 0.00 0.00 65 1015.2
20260905151632 31 202 3.2 3.2 0.00 0.00 0.00 70 1015.3
20260905144632 30 216 1.6 1.6 0.00 0.00 0.00 73 1015.2
20260905141630 29 174 1.6 1.6 0.00 0.00 0.00 75 1015.1
20260905134630 29 186 1.6 1.6 0.00 0.00 0.00 76 1015.1
20260905131625 28 137 0.0 1.6 0.00 0.00 0.00 78 1014.7
20260905124624 26 226 1.6 1.6 0.00 0.00 0.00 83 1014.4
20260905121625 25 346 0.0 0.0 0.00 0.00 0.00 88 1014.2
20260905114620 25 346 0.0 0.0 0.00 0.00 0.00 87 1014.1
20260905111617 25 138 0.0 0.0 0.00 0.00 0.00 87 1014.4
20260905104618 25 138 0.0 0.0 0.00 0.00 0.00 85 1013.9
20260905101617 26 138 0.0 0.0 0.00 0.00 0.00 83 1014.1
20260905094615 26 196 0.0 0.0 0.00 0.00 0.00 81 1014.4
20260905091611 26 166 0.0 0.0 0.00 0.00 0.00 81 1013.8
20260905084607 27 221 0.0 0.0 0.00 0.00 0.00 79 1013.5
20260905081607 27 289 0.0 0.0 0.00 0.00 0.00 77 1013.5
20260905074607 28 199 1.6 1.6 0.00 0.00 0.00 76 1013.6
20260905071603 28 201 0.0 0.0 0.00 0.00 0.00 76 1013.8